• In Belarus
  • List of Countries
  • For 7 days
  • Water Temperature
  • Satellite Maps
  • Weather Map
  • Weather Widgets
  • user-avatar
    Login

    Hourly Weather Blagoevgrad

    Today, 20 May, Monday

    Time Temperature Precipitation Wind Pressure Humidity
    00:00 +14°C° 0 mm 2 mps 714 mmHg 76%
    01:00 +14°C° 0 mm 2 mps 714 mmHg 75%
    02:00 +14°C° 0 mm 2 mps 714 mmHg 74%
    03:00 +14°C° 0 mm 2 mps 714 mmHg 75%
    04:00 +13°C° 0 mm 1 mps 714 mmHg 76%
    05:00 +13°C° 0 mm 1 mps 714 mmHg 77%
    06:00 +15°C° 0 mm 1 mps 714 mmHg 72%
    07:00 +18°C° 0 mm 1 mps 715 mmHg 66%
    08:00 +19°C° 0 mm 2 mps 715 mmHg 61%
    09:00 +21°C° 0 mm 2 mps 715 mmHg 56%
    10:00 +22°C° 0 mm 3 mps 715 mmHg 51%
    11:00 +24°C° 0 mm 3 mps 715 mmHg 47%
    12:00 +23°C° 0.3 mm 4 mps 715 mmHg 48%
    13:00 +23°C° 0.3 mm 4 mps 715 mmHg 50%
    14:00 +23°C° 0.3 mm 4 mps 715 mmHg 52%
    15:00 +22°C° 1.1 mm 5 mps 715 mmHg 57%
    16:00 +21°C° 1.1 mm 5 mps 715 mmHg 62%
    17:00 +20°C° 1.1 mm 5 mps 715 mmHg 66%
    18:00 +18°C° 1.2 mm 4 mps 715 mmHg 72%
    19:00 +17°C° 1.2 mm 3 mps 715 mmHg 77%
    20:00 +15°C° 1.2 mm 2 mps 715 mmHg 83%
    21:00 +14°C° 0.2 mm 2 mps 716 mmHg 83%
    22:00 +14°C° 0.2 mm 2 mps 716 mmHg 84%
    23:00 +13°C° 0.2 mm 2 mps 716 mmHg 84%

    Tomorrow, 21 May, Tuesday

    Time Temperature Precipitation Wind Pressure Humidity
    00:00 +13°C° 0 mm 2 mps 717 mmHg 84%
    01:00 +12°C° 0 mm 1 mps 717 mmHg 84%
    02:00 +12°C° 0 mm 1 mps 717 mmHg 83%
    03:00 +12°C° 0 mm 1 mps 717 mmHg 83%
    04:00 +12°C° 0 mm 1 mps 717 mmHg 84%
    05:00 +11°C° 0 mm 1 mps 717 mmHg 84%
    06:00 +13°C° 0 mm 2 mps 717 mmHg 76%
    07:00 +15°C° 0 mm 2 mps 718 mmHg 68%
    08:00 +17°C° 0 mm 2 mps 718 mmHg 60%
    09:00 +18°C° 0 mm 3 mps 718 mmHg 53%
    10:00 +20°C° 0 mm 3 mps 718 mmHg 46%
    11:00 +21°C° 0 mm 4 mps 718 mmHg 39%
    12:00 +21°C° 0 mm 4 mps 718 mmHg 39%
    13:00 +21°C° 0 mm 4 mps 718 mmHg 39%
    14:00 +22°C° 0 mm 4 mps 718 mmHg 39%
    15:00 +22°C° 0.1 mm 4 mps 718 mmHg 41%
    16:00 +21°C° 0.1 mm 3 mps 718 mmHg 43%
    17:00 +21°C° 0.1 mm 3 mps 718 mmHg 45%
    18:00 +19°C° 0 mm 2 mps 718 mmHg 52%
    19:00 +17°C° 0 mm 2 mps 718 mmHg 59%
    20:00 +15°C° 0 mm 1 mps 718 mmHg 66%
    21:00 +14°C° 0 mm 1 mps 718 mmHg 69%
    22:00 +13°C° 0 mm 1 mps 719 mmHg 72%
    23:00 +12°C° 0 mm 1 mps 719 mmHg 74%

    Day after tomorrow, 22 May, Wednesday

    Time Temperature Precipitation Wind Pressure Humidity
    00:00 +12°C° 0 mm 1 mps 720 mmHg 75%
    01:00 +11°C° 0 mm 1 mps 720 mmHg 76%
    02:00 +11°C° 0 mm 1 mps 720 mmHg 77%
    03:00 +11°C° 0 mm 1 mps 720 mmHg 77%
    04:00 +11°C° 0 mm 1 mps 720 mmHg 76%
    05:00 +10°C° 0 mm 1 mps 720 mmHg 75%
    06:00 +13°C° 0 mm 1 mps 720 mmHg 68%
    07:00 +16°C° 0 mm 1 mps 721 mmHg 60%
    08:00 +19°C° 0 mm 1 mps 721 mmHg 53%
    09:00 +21°C° 0 mm 1 mps 721 mmHg 48%
    10:00 +22°C° 0 mm 1 mps 721 mmHg 42%
    11:00 +24°C° 0 mm 1 mps 721 mmHg 37%
    12:00 +25°C° 0 mm 1 mps 721 mmHg 36%
    13:00 +25°C° 0 mm 2 mps 721 mmHg 35%
    14:00 +26°C° 0 mm 2 mps 721 mmHg 34%
    15:00 +25°C° 0 mm 2 mps 720 mmHg 36%
    16:00 +25°C° 0 mm 2 mps 720 mmHg 37%
    17:00 +25°C° 0 mm 2 mps 719 mmHg 39%
    18:00 +21°C° 0 mm 2 mps 719 mmHg 46%
    19:00 +20°C° 0 mm 1 mps 719 mmHg 53%
    20:00 +16°C° 0 mm 0 mps 719 mmHg 61%
    21:00 +16°C° 0 mm 1 mps 719 mmHg 62%
    22:00 +15°C° 0 mm 1 mps 719 mmHg 64%
    23:00 +15°C° 0 mm 1 mps 720 mmHg 65%

    23 May, Thursday

    Time Temperature Precipitation Wind Pressure Humidity
    00:00 +14°C° 0 mm 1 mps 720 mmHg 66%
    01:00 +14°C° 0 mm 1 mps 719 mmHg 67%
    02:00 +13°C° 0 mm 1 mps 719 mmHg 68%
    03:00 +13°C° 0 mm 1 mps 719 mmHg 68%
    04:00 +13°C° 0 mm 1 mps 719 mmHg 68%
    05:00 +13°C° 0 mm 1 mps 719 mmHg 68%
    06:00 +15°C° 0 mm 1 mps 719 mmHg 63%
    07:00 +19°C° 0 mm 1 mps 720 mmHg 57%
    08:00 +21°C° 0 mm 1 mps 720 mmHg 52%
    09:00 +22°C° 0 mm 1 mps 720 mmHg 48%
    10:00 +24°C° 0 mm 2 mps 720 mmHg 44%
    11:00 +25°C° 0 mm 2 mps 720 mmHg 41%
    12:00 +25°C° 0.1 mm 2 mps 720 mmHg 41%
    13:00 +25°C° 0.1 mm 2 mps 719 mmHg 42%
    14:00 +26°C° 0.1 mm 2 mps 719 mmHg 42%
    15:00 +25°C° 0.4 mm 2 mps 718 mmHg 48%
    16:00 +24°C° 0.4 mm 3 mps 718 mmHg 54%
    17:00 +22°C° 0.4 mm 3 mps 718 mmHg 60%
    18:00 +20°C° 0.5 mm 2 mps 718 mmHg 68%
    19:00 +18°C° 0.5 mm 2 mps 717 mmHg 77%
    20:00 +16°C° 0.5 mm 2 mps 717 mmHg 86%
    21:00 +15°C° 0.2 mm 2 mps 717 mmHg 87%
    22:00 +15°C° 0.2 mm 2 mps 718 mmHg 88%
    23:00 +15°C° 0.2 mm 2 mps 718 mmHg 89%

    24 May, Friday

    Time Temperature Precipitation Wind Pressure Humidity
    00:00 +14°C° 0.1 mm 2 mps 718 mmHg 91%
    01:00 +14°C° 0.1 mm 2 mps 717 mmHg 92%
    02:00 +14°C° 0.1 mm 2 mps 717 mmHg 93%
    03:00 +13°C° 0 mm 2 mps 717 mmHg 93%
    04:00 +13°C° 0 mm 2 mps 717 mmHg 94%
    05:00 +12°C° 0 mm 2 mps 717 mmHg 94%
    06:00 +14°C° 0 mm 2 mps 717 mmHg 85%
    07:00 +15°C° 0 mm 2 mps 717 mmHg 77%
    08:00 +17°C° 0 mm 2 mps 717 mmHg 68%
    09:00 +18°C° 0 mm 3 mps 717 mmHg 61%
    10:00 +20°C° 0 mm 3 mps 717 mmHg 54%
    11:00 +21°C° 0 mm 3 mps 717 mmHg 47%
    12:00 +22°C° 0 mm 3 mps 716 mmHg 46%
    13:00 +22°C° 0 mm 3 mps 716 mmHg 44%
    14:00 +24°C° 0 mm 3 mps 715 mmHg 42%
    15:00 +22°C° 0.1 mm 3 mps 715 mmHg 44%
    16:00 +22°C° 0.1 mm 3 mps 715 mmHg 46%
    17:00 +22°C° 0.1 mm 3 mps 715 mmHg 47%
    18:00 +20°C° 0.1 mm 3 mps 714 mmHg 55%
    19:00 +17°C° 0.1 mm 2 mps 714 mmHg 63%
    20:00 +15°C° 0.1 mm 2 mps 714 mmHg 70%
    21:00 +14°C° 0 mm 1 mps 714 mmHg 74%
    22:00 +13°C° 0 mm 1 mps 714 mmHg 79%
    23:00 +12°C° 0 mm 1 mps 714 mmHg 83%

    25 May, Saturday

    Time Temperature Precipitation Wind Pressure Humidity
    00:00 +12°C° 0 mm 1 mps 714 mmHg 83%
    01:00 +11°C° 0 mm 1 mps 714 mmHg 82%
    02:00 +10°C° 0 mm 1 mps 714 mmHg 82%
    03:00 +10°C° 0 mm 1 mps 714 mmHg 76%
    04:00 +10°C° 0 mm 1 mps 714 mmHg 69%
    05:00 +10°C° 0 mm 1 mps 714 mmHg 62%
    06:00 +12°C° 0 mm 1 mps 715 mmHg 57%
    07:00 +15°C° 0 mm 1 mps 715 mmHg 52%
    08:00 +19°C° 0 mm 1 mps 715 mmHg 47%
    09:00 +20°C° 0 mm 1 mps 715 mmHg 43%
    10:00 +22°C° 0 mm 1 mps 715 mmHg 40%
    11:00 +23°C° 0 mm 2 mps 716 mmHg 37%
    12:00 +24°C° 0 mm 2 mps 715 mmHg 36%
    13:00 +25°C° 0 mm 2 mps 715 mmHg 36%
    14:00 +25°C° 0 mm 2 mps 715 mmHg 35%
    15:00 +25°C° 0 mm 2 mps 715 mmHg 37%
    16:00 +25°C° 0 mm 2 mps 715 mmHg 39%
    17:00 +25°C° 0 mm 2 mps 714 mmHg 41%
    18:00 +21°C° 0 mm 2 mps 714 mmHg 50%
    19:00 +20°C° 0 mm 1 mps 714 mmHg 59%
    20:00 +18°C° 0 mm 1 mps 714 mmHg 69%
    21:00 +16°C° 0 mm 1 mps 714 mmHg 71%
    22:00 +15°C° 0 mm 1 mps 715 mmHg 73%
    23:00 +15°C° 0 mm 1 mps 715 mmHg 76%
    Show more